This is the latest recevied weather packets stored in our database for station/object SV9FBP. If no packets are shown the sender has not sent any weather packets the latest 10 day(s).
| Time | Temp. | Humidity | Pressure | Rain* | Wind** | Luminosity | Snow |
|---|---|---|---|---|---|---|---|
| 1777971942 | 19.44° C | 47% | 1015.7 hPa | 0 mm | - | - | - |
| 1777971040 | 18.89° C | 50% | 1015.7 hPa | 0 mm | - | - | - |
| 1777970140 | 18.89° C | 50% | 1015.6 hPa | 0 mm | - | - | - |
| 1777969235 | 18.33° C | 53% | 1015.8 hPa | 0 mm | - | - | - |
| 1777968334 | 18.33° C | 56% | 1015.8 hPa | 0 mm | - | - | - |
| 1777967431 | 17.78° C | 55% | 1015.7 hPa | 0 mm | - | - | - |
| 1777966529 | 17.78° C | 54% | 1015.8 hPa | 0 mm | - | - | - |
| 1777965627 | 17.78° C | 54% | 1015.5 hPa | 0 mm | - | - | - |
| 1777964725 | 17.78° C | 55% | 1015.4 hPa | 0 mm | - | - | - |
| 1777963822 | 17.78° C | 59% | 1015.4 hPa | 0 mm | - | - | - |
| 1777962920 | 17.22° C | 63% | 1015.3 hPa | 0 mm | - | - | - |
| 1777962018 | 16.67° C | 67% | 1015.3 hPa | 0 mm | - | - | - |
| 1777961116 | 16.11° C | 70% | 1015.1 hPa | 0 mm | - | - | - |
| 1777960214 | 15.56° C | 71% | 1015.1 hPa | 0 mm | - | - | - |
| 1777959312 | 15° C | 71% | 1014.9 hPa | 0 mm | - | - | - |
| 1777958410 | 14.44° C | 71% | 1015 hPa | 0 mm | - | - | - |
| 1777957507 | 13.89° C | 71% | 1014.9 hPa | 0 mm | - | - | - |
| 1777956605 | 13.89° C | 70% | 1014.9 hPa | 0 mm | - | - | - |
| 1777955703 | 13.33° C | 70% | 1014.9 hPa | 0 mm | - | - | - |
| 1777954801 | 13.33° C | 69% | 1014.9 hPa | 0 mm | - | - | - |
| 1777953900 | 13.89° C | 68% | 1014.9 hPa | 0 mm | - | - | - |
| 1777952095 | 14.44° C | 68% | 1014.8 hPa | 0 mm | - | - | - |
| 1777951193 | 14.44° C | 67% | 1014.7 hPa | 0 mm | - | - | - |
| 1777950290 | 14.44° C | 68% | 1014.4 hPa | 0 mm | - | - | - |
| 1777949388 | 14.44° C | 68% | 1014.4 hPa | 0 mm | - | - | - |
* Rain latest hour (hover to see other rain measurements)
** Current wind speed in m/s (hover to see current wind gust speed)